Location: Adzvi
(42.1428°N, 44.1856°E)
Time: 09:37:05
(UTC+00:00)

Daily predictions for brighter satellites

Satellite Brightness Start Highest point End
(mag) Time Altitude Azimuth Time Altitude Azimuth Time Altitude Azimuth
Cosmos 2034 Rocket 4.5 16:56:49 10° NNW 17:02:56 66° W 17:09:01 10° S
STARLINK-1243 3.9 16:59:39 10° WSW 17:03:48 75° NW 17:07:57 10° NE
STARLINK-1069 4.3 17:00:59 10° WNW 17:04:59 48° SW 17:08:57 10° SSE
Cosmos 2278 Rocket 2.2 17:01:32 10° SSW 17:07:12 87° ESE 17:12:55 10° NNE
STARLINK-1116 4.4 17:03:16 10° NW 17:07:16 46° NNE 17:11:16 10° ESE
STARLINK-1236 4.0 17:04:38 10° WSW 17:08:46 69° NW 17:12:55 10° NE
STARLINK-1085 4.4 17:06:01 10° WNW 17:09:57 44° SW 17:13:53 10° SSE
Sich 1 Rocket 3.7 17:10:52 10° N 17:15:29 72° E 17:20:02 10° SSE
SL-4 R/B 1.3 17:13:15 10° NNW 17:16:17 60° ENE 17:18:58 11° SE
STARLINK-1094 4.1 17:13:12 10° NW 17:17:16 53° NNE 17:21:19 10° ESE
Resurs 01 Rocket 1.9 17:13:51 10° SSE 17:18:11 54° ENE 17:22:32 10° N
STARLINK-1269 4.3 17:14:39 10° WSW 17:18:44 59° NNW 17:22:51 10° NE
Cosmos 1515 4.3 17:16:27 10° SSW 17:20:12 59° W 17:23:59 10° N
Okean 2 Rocket 3.4 17:16:52 10° N 17:21:10 49° ENE 17:25:26 10° SSE
STARLINK-1117 4.0 17:18:09 10° NW 17:22:15 57° NNE 17:26:17 10° ESE
SPOT 3 Rocket 3.6 17:17:20 10° SSE 17:22:29 86° WSW 17:27:40 10° NNW
STARLINK-1200 4.5 17:19:39 10° WSW 17:23:43 54° NNW 17:27:48 10° NE
Cosmos 1954 Rocket 4.1 17:18:59 10° NNW 17:24:16 84° WSW 17:29:34 10° SSE
GPS 2-04 Rocket1 3.5 17:21:44 10° WSW 17:24:46 28° S 17:27:30 12° ESE
Cosmos 371 Rocket 3.3 17:21:05 10° S 17:25:53 70° ESE 17:30:44 10° NNE
STARLINK-1078 3.9 17:23:08 10° NW 17:27:15 62° NNE 17:31:04 12° ESE
Spot 2 Rocket 4.3 17:23:41 10° SE 17:28:09 36° ENE 17:32:43 10° N
Terra 4.0 17:28:13 10° E 17:29:58 12° ENE 17:31:42 10° NE
H-2A R/B 4.1 17:27:31 10° SSW 17:31:40 25° W 17:35:55 10° NW
STARLINK-1108 3.8 17:28:06 10° NW 17:32:14 67° NE 17:35:51 13° ESE
SL-4 R/B 3.9 17:30:40 10° SSE 17:33:22 15° SE 17:36:06 10° E
BREEZE M DEB (TANK) 3.3 17:24:53 10° SW 17:34:00 77° SSE 17:37:00 10° ENE
Cosmos 2151 Rocket 4.0 17:31:29 10° N 17:35:54 50° ENE 17:39:47 13° SSE
STARLINK-1071 3.7 17:33:04 10° NW 17:37:13 73° NE 17:40:38 15° ESE
Cosmos 1634 Rocket 4.2 17:32:03 10° N 17:38:24 80° W 17:44:43 10° S
EXPRESS MD2 2.8 17:36:15 10° SW 17:38:55 74° SE 17:43:39 10° ENE
STARLINK-1110 3.7 17:36:52 10° NW 17:41:01 78° NE 17:44:16 16° ESE
NOSS 8 (E) 4.2 17:38:15 10° SW 17:41:40 85° NW 17:44:42 10° NE
Resurs 1-3 4.2 17:38:37 10° S 17:42:54 54° W 17:47:14 10° NNW
NOSS 2-2 (D) 3.8 17:40:56 10° S 17:44:07 31° ESE 17:47:27 10° NE
Abrixas rocket 3.3 17:43:32 10° NW 17:46:16 33° NNE 17:48:54 11° E
STARLINK-1124 3.6 17:43:01 10° NW 17:47:12 86° NE 17:50:12 18° SE
Cosmos 1300 Rocket 3.6 17:46:56 10° N 17:51:24 88° W 17:55:27 12° S
STARLINK-1122 3.6 17:48:00 10° NW 17:52:09 87° SW 17:54:58 20° SE
STARLINK-1126 3.6 17:53:01 10° NW 17:57:11 80° SW 17:59:49 22° SE
Cosmos 1437 Rocket 2.6 17:53:41 10° S 17:57:27 78° E 18:01:17 10° NNE
Cosmos 304 Rocket 3.7 17:52:55 10° S 17:57:38 66° ESE 18:02:24 10° NNE
Aureole 2 Rocket 2.0 17:56:02 10° SSW 17:59:10 70° ESE 18:02:10 10° NNE
Lacrosse 5 2.1 17:55:16 10° NW 18:00:16 61° SW 18:03:43 20° SSE
NOSS 2-2 (E) 3.0 17:57:49 10° SSW 18:01:20 65° ESE 18:05:10 10° NE
Cosmos 1378 4.2 18:00:30 22° ESE 18:01:42 27° E 18:04:52 10° NNE
STARLINK-1082 3.6 17:57:57 10° NW 18:02:05 73° SW 18:04:32 24° SE
CZ-2C R/B 4.1 17:57:09 10° N 18:02:23 41° WNW 18:07:36 10° SW
STARLINK-1100 3.7 18:02:55 10° WNW 18:07:03 67° SW 18:09:18 25° SE
Cosmos 1674 Rocket 3.5 18:05:04 12° S 18:09:10 85° E 18:13:35 10° N
Intercosmos 24 4.2 18:05:52 10° NNW 18:09:23 59° W 18:12:33 15° S
ISS -3.2 18:06:37 10° WNW 18:09:52 45° SW 18:11:10 29° SSE
Cosmos 2297 3.6 18:05:45 10° SSW 18:11:25 83° ESE 18:17:10 10° NNE
STARLINK-1083 3.8 18:07:56 10° WNW 18:12:02 61° SW 18:14:06 27° SSE
Cosmos 1378 Rocket 3.5 18:08:48 17° S 18:12:09 69° E 18:16:31 10° NNE
Cosmos 1943 Rocket 2.7 18:08:56 19° SSE 18:12:16 37° ESE 18:17:21 10° NE
Cosmos 1833 Rocket 3.9 18:08:16 10° NW 18:13:23 37° WSW 18:18:26 10° S
BREEZE-M DEB (TANK) 4.4 17:58:55 10° WNW 18:15:05 66° NNE 18:19:13 15° ESE
STARLINK-1125 3.9 18:12:57 10° WNW 18:17:00 55° SW 18:18:53 29° SSE
Cosmos 2082 Rocket 2.7 18:14:27 10° NNW 18:20:01 55° WSW 18:24:10 18° S
Cosmos 1766 4.2 18:17:11 10° N 18:20:49 33° ENE 18:22:01 27° ESE
IGS 5A 3.4 18:19:02 24° S 18:21:29 82° W 18:25:39 10° NNW
STARLINK-1109 4.0 18:17:57 10° WNW 18:21:58 50° SW 18:23:40 30° SSE
Landsat 7 3.8 18:18:55 22° S 18:22:02 84° WSW 18:26:49 10° NNW
Meteor 1-23 Rocket 4.2 18:16:40 11° S 18:22:09 85° E 18:27:49 10° N
STARLINK-1123 4.4 18:20:13 10° NW 18:24:13 45° NNE 18:26:41 21° E
NOSS 2-2 (C) 3.0 18:22:22 10° SW 18:25:54 85° WNW 18:29:44 10° NE
SeaSat 1 4.5 18:24:04 10° E 18:25:03 12° E 18:25:03 12° E
STARLINK-1091 4.2 18:22:56 10° WNW 18:26:54 45° SW 18:28:25 31° S
Cosmos 2369 Rocket 2.8 18:25:39 26° SSE 18:27:54 36° ESE 18:33:00 10° NE
ATLAS 2AS CENTAUR R/B 3.8 18:25:53 23° SSE 18:29:14 31° ESE 18:35:56 10° NE
STARLINK-1097 4.3 18:25:13 10° NW 18:29:15 48° NNE 18:31:30 23° E
Cosmos 1461 4.4 18:27:08 10° WSW 18:31:02 39° NW 18:35:08 10° NNE
Cosmos 1975 Rocket 3.8 18:30:22 31° SE 18:31:33 37° E 18:35:37 10° NNE
STARLINK-1072 4.3 18:27:58 10° WNW 18:31:53 41° SW 18:33:14 31° S
ATLAS 3B CENTAUR R/B 3.8 18:21:46 10° WSW 18:33:41 33° S 18:36:44 25° SSE
STARLINK-1099 4.2 18:30:10 10° NW 18:34:14 52° NNE 18:36:16 26° E
NOSS 3-2 (A) 4.4 18:27:21 10° NNW 18:34:45 57° NE 18:40:25 22° ESE
STARLINK-1096 4.5 18:33:00 10° WNW 18:36:50 37° SW 18:38:00 30° S
SPOT 5 3.1 18:35:04 30° SSE 18:37:42 71° ENE 18:43:03 10° N
STARLINK-1104 4.1 18:35:08 10° NW 18:39:12 56° NNE 18:41:02 30° E
Meteor 1-22 Rocket 4.5 18:36:08 10° N 18:41:56 58° ENE 18:44:29 32° SE
ERS-1 Rocket 2.9 18:39:41 31° SSE 18:42:11 90° NE 18:47:15 10° NNW
STARLINK-1144 3.9 18:40:06 10° NW 18:44:13 60° NNE 18:45:50 34° E
ATLAS CENTAUR R/B 3.8 18:47:21 11° ENE 18:47:21 11° ENE 18:47:40 10° ENE
USA 238 DEB 4.1 18:39:24 10° NNW 18:46:35 63° NE 18:51:00 26° ESE
USA 238 4.1 18:39:30 10° NNW 18:46:41 62° NE 18:51:07 26° ESE
STARLINK-1103 3.8 18:45:04 10° NW 18:49:11 65° NE 18:50:36 38° ESE
Nadezhda 4 Rocket 4.2 18:43:57 14° SSW 18:49:20 69° W 18:55:27 10° N
Okean 2 3.3 18:49:52 46° SSE 18:50:57 69° E 18:55:05 10° NNE
STARLINK-1101 3.7 18:50:02 10° NW 18:54:10 71° NE 18:55:23 43° ESE
Resurs 01 Rocket 4.2 18:52:33 10° SW 18:54:59 14° W 18:57:26 10° WNW
Okean 1 Rocket 3.9 18:54:24 10° NNW 18:58:39 45° W 19:00:41 26° SSW
STARLINK-1102 3.6 18:55:01 10° NW 18:59:10 77° NE 19:00:10 50° ESE
Cosmos 1805 3.4 18:57:01 10° NNW 19:00:54 67° W 19:01:51 47° SSW
Cosmos 1470 3.9 18:57:38 10° NNE 19:01:02 28° ENE 19:01:09 28° E
STARLINK-1111 3.5 18:59:58 10° NW 19:04:08 84° NE 19:04:56 57° ESE
Cosmos 1455 Rocket 3.2 19:00:12 10° N 19:04:28 55° E 19:05:10 49° ESE
SL-8 R/B 3.6 19:01:58 10° WNW 19:06:49 88° NNE 19:08:20 44° ESE
Terra 1.8 19:05:29 44° S 19:07:00 84° WSW 19:11:47 10° NNW
STARLINK-1073 3.5 19:04:58 10° NW 19:09:07 90° SW 19:09:44 64° SE
BREEZE-M DEB (TANK) 3.4 19:08:16 14° SW 19:11:02 82° SSE 19:21:07 10° ENE
CARTOSAT-1 4.4 19:10:42 32° SW 19:12:08 43° W 19:16:16 10° NNW
SL-4 R/B 2.2 19:07:42 10° SW 19:12:27 79° SE 19:17:19 10° ENE
Cosmos 1758 4.2 19:10:01 10° N 19:13:46 35° ENE 19:13:55 35° E
STARLINK-1121 3.4 19:09:56 10° NW 19:14:06 83° SW 19:14:30 71° SSE
Cosmos 1842 3.2 19:13:36 66° SSW 19:14:07 84° W 19:18:01 10° N
Cosmos 2263 4.1 19:15:32 42° S 19:17:19 65° ESE 19:22:52 10° NNE
STARLINK-1106 3.4 19:14:57 10° NW 19:19:05 76° SW 19:19:18 73° S
Abrixas rocket 3.9 19:19:00 10° WNW 19:20:22 23° W 19:20:22 23° W
STARLINK-1112 3.5 19:19:54 10° WNW 19:24:02 69° SW 19:24:04 69° SW
COSMOS 2455 3.4 19:26:39 38° ESE 19:27:01 38° ESE 19:32:32 10° NE
Meteor 1-21 4.1 19:25:32 43° S 19:27:29 86° E 19:33:07 10° N
STARLINK-1128 3.7 19:24:53 10° WNW 19:28:50 62° SW 19:28:50 62° SW
Cosmos 1536 Rocket 4.0 19:31:28 46° E 19:31:28 46° E 19:35:31 10° NNE
STARLINK-1113 3.9 19:29:54 10° WNW 19:33:38 55° WSW 19:33:38 55° WSW
Cosmos 1733 4.1 19:30:41 10° NNW 19:34:14 38° W 19:34:33 37° WSW
Spot 4 4.3 19:35:15 43° ESE 19:36:04 48° ENE 19:40:44 10° N
Cosmos 1486 Rocket 3.9 19:31:29 10° NNW 19:36:48 89° WSW 19:37:53 58° SSE
STARLINK-1119 4.1 19:34:55 10° WNW 19:38:26 48° WSW 19:38:26 48° WSW
Cosmos 1271 Rocket 2.7 19:39:15 76° NNE 19:39:15 76° NNE 19:42:55 10° N
CENTAUR R/B 3.2 19:31:27 10° NNW 19:39:37 77° NE 19:43:59 34° SE
Cosmos 1544 Rocket 3.4 19:36:54 10° N 19:41:15 80° W 19:41:31 75° SW
Cosmos 1242 Rocket 3.0 19:41:26 56° WNW 19:41:26 56° WNW 19:45:01 10° N
Cosmos 1417 Rocket 4.5 19:35:23 10° N 19:41:45 75° E 19:43:39 48° SSE
ATLAS 3B R/B 3.6 19:36:06 10° NNW 19:42:29 41° NE 19:46:44 21° ESE
STARLINK-1114 4.3 19:39:54 10° WNW 19:43:12 42° WSW 19:43:12 42° WSW
NOSS 3-2 (C) 4.0 19:36:49 10° NW 19:44:31 88° NE 19:48:11 39° SE
STARLINK-60 4.4 19:47:58 36° NNW 19:47:58 36° NNW 19:50:57 10° NE
Cosmos 1707 2.9 19:49:26 70° NNE 19:49:26 70° NNE 19:52:55 10° N
NOSS 3-4 (A) 3.2 19:49:11 40° SSW 19:51:28 86° SE 19:57:46 10° NE
NOSS 3-4 (C) 3.2 19:49:20 41° SSW 19:51:35 85° ESE 19:57:52 10° NE
ALOS 2 3.7 19:53:01 33° ENE 19:53:19 33° ENE 19:57:15 10° N
Cosmos 1943 Rocket 3.7 19:51:03 10° WSW 19:56:01 33° NW 20:01:03 10° N
Cosmos 1867 3.8 19:50:44 10° NNW 19:56:10 62° NE 19:57:28 47° ESE
SL-27 R/B 4.0 19:53:20 10° NW 19:55:55 30° WNW 19:55:55 30° WNW
Cosmos 1992 Rocket 4.0 19:56:02 54° SW 19:57:13 78° WNW 20:02:27 10° NNE
Cosmos 1726 3.0 19:55:24 10° N 19:58:20 44° NE 19:58:20 44° NE
SeaSat 1 2.4 19:59:03 10° NNE 20:04:01 86° WNW 20:04:49 63° SW
COSMOS 2487 3.8 20:01:05 10° N 20:03:33 35° NNE 20:03:33 35° NNE
EO 1 Del DPAF 3.8 20:06:02 10° N 20:09:29 52° WNW 20:09:29 52° WNW
Cosmos 2369 Rocket 3.6 20:07:22 13° WSW 20:11:53 35° WNW 20:17:02 10° N
S3M 3.9 20:05:49 10° N 20:12:00 81° W 20:13:29 55° S
Meteor 2-10 3.7 20:07:14 10° N 20:12:18 86° W 20:12:42 76° S
RESURS DK-1 3.7 20:18:05 30° ENE 20:18:05 30° ENE 20:20:34 10° NE
ATLAS 2AS CENTAUR R/B 3.3 20:13:12 16° SW 20:19:45 68° NW 20:27:42 10° NNE
Meteor 2-19 Rocket 4.3 20:19:34 57° S 20:20:57 88° W 20:27:06 10° N
ATLAS CENTAUR R/B 1.8 20:23:28 57° WNW 20:23:40 58° NW 20:27:48 10° NNE
Nimbus 7 Rocket 4.3 20:18:42 10° NNE 20:24:49 86° ESE 20:26:06 58° S
Thor Agena Rocket 4.3 20:19:56 10° N 20:24:58 46° WNW 20:26:36 35° WSW
Cosmos 1626 4.3 20:26:56 18° ENE 20:26:56 18° ENE 20:28:35 10° NE
Cosmos 1656 Rocket 4.3 20:23:31 32° WSW 20:25:46 51° WNW 20:31:12 10° NNE
Cosmos 1025 Rocket 4.1 20:26:06 34° W 20:26:28 35° WNW 20:30:25 10° N
Cosmos 1340 Rocket 3.2 20:23:28 10° NNW 20:26:55 61° NW 20:26:55 61° NW
Cosmos 2292 Rocket 4.1 20:29:59 45° NNW 20:29:59 45° NNW 20:32:23 10° N
Cosmos 1655 Rocket 4.4 20:30:06 40° SW 20:32:04 55° WNW 20:38:13 10° N
Cosmos 1908 4.1 20:29:19 10° N 20:32:14 46° NNE 20:32:14 46° NNE
Cosmos 1953 3.3 20:31:50 10° NNW 20:35:00 41° WNW 20:35:00 41° WNW
Cosmos 1777 Rocket 4.1 20:37:16 10° NNW 20:42:29 63° ENE 20:43:05 59° ESE
Meteor 2-15 4.4 20:39:53 10° NNW 20:46:00 71° W 20:47:04 59° SSW
Cosmos 1892 Rocket 4.0 20:47:56 54° ENE 20:47:56 54° ENE 20:51:43 10° NNE
CZ-4C R/B 3.9 20:51:11 16° E 20:51:11 16° E 20:53:36 10° ENE
Cosmos 2266 Rocket 4.4 20:49:10 42° WSW 20:50:42 53° WNW 20:56:37 10° N
Meteor 1-24 Rocket 3.8 20:50:55 54° ESE 20:51:12 54° E 20:56:30 10° NNE
ATLAS CENTAUR R/B 4.2 20:50:31 10° N 20:51:58 14° NE 20:53:56 10° ENE
Cosmos 2228 3.2 20:48:06 10° N 20:51:46 66° NNW 20:51:46 66° NNW
SL-4 R/B 4.0 20:48:09 10° W 20:52:34 35° NNW 20:57:00 10° NE
Cosmos 1726 Rocket 3.7 20:48:33 10° N 20:52:25 67° NNE 20:52:25 67° NNE
YAOGAN 11 4.4 20:54:15 60° ENE 20:54:15 60° ENE 20:58:18 10° N
Cosmos 921 Rocket 3.6 20:55:05 48° ENE 20:55:05 48° ENE 20:58:33 10° NNE
Cosmos 1300 4.0 20:55:43 10° N 20:58:37 34° NE 20:58:37 34° NE
Cosmos 220 Rocket 4.5 21:04:54 56° ENE 21:04:54 56° ENE 21:08:39 10° NNE
Cosmos 1244 Rocket 4.4 21:06:23 62° S 21:07:31 83° E 21:13:42 10° N
STARLINK-1204 4.4 21:04:05 10° NW 21:08:07 49° NNE 21:08:24 48° NE
USA 215 3.2 21:05:38 36° SE 21:08:39 86° NE 21:15:14 10° NW
SJ 16-02 3.3 21:05:24 10° N 21:08:51 22° ENE 21:10:14 19° E
Cosmos 1674 4.2 21:13:31 29° NW 21:13:31 29° NW 21:16:16 10° NNW
COSMOS 2455 4.0 21:09:45 23° WSW 21:12:56 38° NW 21:18:32 10° NNE
STARLINK-1238 4.3 21:09:04 10° NW 21:13:08 53° NNE 21:13:12 52° NE
Helios 1B rocket 3.2 21:10:30 10° NNE 21:13:51 46° ENE 21:13:51 46° ENE
STARLINK-1377 4.5 21:17:37 43° NNE 21:17:37 43° NNE 21:20:26 10° NE
CZ-2D R/B 4.4 21:15:21 10° ENE 21:17:15 12° E 21:18:32 11° ESE
Meteor 2-16 Rocket 4.5 21:16:49 56° SE 21:17:56 67° E 21:24:00 10° NNE
STARLINK-1201 4.2 21:14:02 10° NW 21:17:58 56° NNE 21:17:58 56° NNE
Cosmos 2219 3.7 21:13:07 10° NNW 21:18:39 53° ENE 21:20:25 38° ESE
BREEZE-M R/B 3.6 21:15:12 28° WSW 21:19:00 82° NNW 21:22:55 10° ENE
STARLINK-1353 4.5 21:20:52 44° N 21:20:52 44° N 21:23:49 10° NE
Cosmos 2297 Rocket 3.0 21:17:34 10° NNW 21:23:02 47° ENE 21:25:14 31° ESE
STARLINK-1206 4.1 21:19:01 10° NW 21:22:46 58° N 21:22:46 58° N
STARLINK-1375 4.4 21:24:08 44° N 21:24:08 44° N 21:27:12 10° NE
Helios 1A 3.9 21:24:59 39° WNW 21:24:59 39° WNW 21:28:11 10° NNW
STARLINK-1350 4.4 21:27:23 44° N 21:27:23 44° N 21:30:35 10° NE
Timation 2 Rocket 3.8 21:20:59 10° NNW 21:27:11 68° WSW 21:27:58 61° SSW
STARLINK-1205 4.1 21:23:58 10° NW 21:27:32 58° NNW 21:27:32 58° NNW
ALOS 2 4.3 21:30:24 22° W 21:30:24 22° W 21:33:10 10° NW
CENTAUR R/B 4.1 21:23:03 10° NW 21:29:55 29° WSW 21:31:08 28° WSW
PSLV R/B 3.7 21:25:53 10° NNE 21:30:06 74° ENE 21:30:06 74° ENE
Lacrosse 4 Rocket 4.0 21:29:05 10° N 21:32:08 18° NE 21:35:06 10° E
Meteor 2-5 Rocket 4.2 21:31:45 44° WSW 21:32:40 48° WNW 21:38:07 10° N
STARLINK-1218 4.2 21:28:58 10° NW 21:32:20 55° NNW 21:32:20 55° NNW
ATLAS 3B R/B 3.0 21:26:46 10° NW 21:33:16 47° WSW 21:33:57 45° SW
STARLINK-1368 4.5 21:34:00 42° NNW 21:34:00 42° NNW 21:37:28 10° NE
Cosmos 1626 Rocket 3.8 21:34:44 62° ENE 21:34:44 62° ENE 21:38:42 10° NNE
SL-08 R/B 4.4 21:33:24 58° SSW 21:34:46 86° W 21:41:09 10° N
Cosmos 2058 Rocket 3.5 21:30:47 10° NNW 21:34:42 55° WNW 21:34:42 55° WNW
Cosmos 1455 4.2 21:34:51 10° NNE 21:37:45 21° ENE 21:38:00 21° E
STARLINK-1254 4.3 21:33:55 10° NW 21:37:06 50° NW 21:37:06 50° NW
SL-16 R/B 4.1 21:34:12 12° ESE 21:38:55 28° ENE 21:44:03 10° N
Cosmos 192 4.2 21:39:28 76° SE 21:39:36 77° ESE 21:44:35 10° NNE
Meteor 1-29 4.4 21:37:58 10° NNE 21:40:09 36° NNE 21:40:09 36° NNE
STARLINK-1231 4.4 21:38:53 10° NW 21:41:52 46° NW 21:41:52 46° NW
SL-14 R/B 4.3 21:43:45 37° NW 21:43:45 37° NW 21:46:44 10° N
Cosmos 1386 Rocket 4.4 21:45:22 56° SSE 21:46:42 79° E 21:52:55 10° N
Cosmos 1656 3.6 21:46:28 65° S 21:47:14 77° ESE 21:52:52 10° NNE
Cosmos 1697 Rocket 3.2 21:51:04 42° SE 21:51:54 45° ESE 21:57:16 10° NE
RESURS DK-1 4.4 21:53:56 18° WNW 21:54:53 20° NW 21:57:56 10° N
SL-19 R/B 4.4 21:51:23 10° NNE 21:56:57 69° ESE 21:58:12 53° SSE
BREEZE-M DEB (TANK) 3.9 21:53:17 10° WNW 21:57:08 27° N 21:59:13 10° ENE
BREEZE-M DEB (TANK) 3.5 21:54:36 10° WNW 21:58:15 71° SSW 22:06:41 10° SE
Cosmos 2227 Rocket 2.2 21:54:17 10° NNW 22:00:00 79° ENE 22:01:44 46° SE
Cosmos 1626 4.0 22:01:28 22° WNW 22:01:28 22° WNW 22:03:55 10° NNW
Cosmos 1709 Rocket 4.2 21:59:31 44° SSE 22:01:18 61° E 22:07:21 10° NNE
Cosmos 1812 Rocket 3.5 21:57:08 10° N 22:01:36 75° E 22:01:47 74° ESE
Cosmos 990 Rocket 4.2 21:56:22 10° NNW 22:01:37 65° ENE 22:03:09 44° SE
USA 81 4.3 22:01:48 50° SE 22:02:52 61° E 22:08:05 10° NNE
CZ-4 R/B 4.4 21:59:38 10° N 22:04:08 43° WNW 22:04:39 41° W
SL-08 ROCKET BODY 4.3 22:03:05 55° SW 22:04:18 72° W 22:10:09 10° N
Cosmos 1825 Rocket 4.2 22:07:45 41° ESE 22:08:09 42° E 22:12:14 10° NNE
Cosmos 1602 Rocket 3.6 22:10:15 66° WNW 22:10:15 66° WNW 22:14:30 10° N
BREEZE M DEB (TANK) 3.7 22:14:00 34° ENE 22:14:00 34° ENE 22:17:05 10° E
Cosmos 841 Rocket 4.1 22:13:11 40° SE 22:14:14 45° ESE 22:19:12 10° NNE
Nadezhda 1 Rocket 4.2 22:15:22 10° NNW 22:21:24 55° W 22:22:56 44° SW
FALCON 9 R/B 3.2 22:19:35 40° SW 22:21:41 50° S 22:39:26 10° ESE
Cosmos 1328 4.2 22:21:58 51° ESE 22:22:09 52° E 22:26:02 10° NNE
ADEOS II 4.1 22:19:33 10° NE 22:23:14 19° E 22:26:10 13° SE
Cosmos 1763 Rocket 3.4 22:25:32 57° SW 22:26:28 74° WNW 22:31:34 10° NNE
STARLINK-1192 4.4 22:26:03 10° NW 22:30:07 51° NNE 22:34:09 10° ESE
Spot 1 4.4 22:32:36 56° SW 22:33:08 60° W 22:38:05 10° NNW
STARLINK-1244 4.3 22:31:00 10° NW 22:35:06 55° NNE 22:39:10 10° ESE
ERBS 4.4 22:33:25 10° NNW 22:36:22 28° NE 22:39:18 10° E
CZ-4C R/B 2.2 22:36:20 43° WSW 22:37:52 65° NW 22:43:43 10° NNE
STARLINK-1138 4.1 22:35:59 10° NW 22:40:05 60° NNE 22:44:11 10° ESE
STARLINK-26 3.8 22:44:17 46° E 22:44:17 46° E 22:47:02 10° ENE
Cosmos 1703 3.1 22:43:53 73° WSW 22:44:05 75° W 22:48:02 10° N
Resurs 1-4 Rocket 2.1 22:38:57 10° NNE 22:44:16 78° ESE 22:46:05 43° S
STARLINK-1143 4.0 22:40:56 10° NW 22:45:04 65° NE 22:49:10 10° ESE
Cosmos 2369 3.7 22:43:44 43° SW 22:45:33 71° WNW 22:51:13 10° NNE
Cosmos 1980 Rocket 2.3 22:45:27 41° S 22:47:22 70° ESE 22:52:59 10° NNE
SJ 16-02 2.1 22:43:28 10° NW 22:47:11 35° W 22:47:11 35° W
STARLINK-1307 4.5 22:49:25 30° ESE 22:49:25 30° ESE 22:51:58 10° ENE
MOZ.5/SAFIR/RUBIN 5/SL-8 3.7 22:48:36 53° SSW 22:49:32 68° W 22:54:09 10° NNW
Cosmos 1758 Rocket 3.8 22:49:14 48° WSW 22:49:46 52° W 22:54:05 10° N
STARLINK-1241 3.8 22:45:56 10° NW 22:50:05 70° NE 22:54:12 10° ESE
STARLINK-43 3.5 22:50:02 57° WNW 22:50:25 62° NNW 22:54:04 10° NE
STARLINK-1316 4.5 22:51:33 28° E 22:51:33 28° E 22:53:31 10° ENE
STARLINK-1290 4.4 22:52:02 32° ESE 22:52:02 32° ESE 22:54:42 10° ENE
STARLINK-1257 4.4 22:52:25 28° E 22:52:25 28° E 22:54:27 10° ENE
USA 215 4.3 22:52:57 25° WSW 22:52:57 25° WSW 22:57:27 10° WNW
STARLINK-1256 4.3 22:53:15 29° E 22:53:15 29° E 22:55:20 10° ENE
STARLINK-1268 4.4 22:53:24 29° E 22:53:24 29° E 22:55:25 10° ENE
STARLINK-1213 4.3 22:54:06 30° ESE 22:54:06 30° ESE 22:56:13 10° ENE
STARLINK-1297 4.3 22:53:52 33° ESE 22:53:52 33° ESE 22:56:38 10° ENE
GP-B 3.0 22:49:17 10° N 22:53:45 87° E 22:54:56 49° S
STARLINK-1263 4.2 22:55:01 31° ESE 22:55:01 31° ESE 22:57:09 10° ENE
STARLINK-1239 3.7 22:50:54 10° NW 22:55:03 76° NE 22:59:11 10° ESE
STARLINK-1259 4.2 22:55:53 32° ESE 22:55:53 32° ESE 22:58:05 10° ENE
STARLINK-1265 4.2 22:56:22 32° ESE 22:56:22 32° ESE 22:58:35 10° ENE
Cosmos 2360 4.2 22:53:49 41° SW 22:55:54 77° WNW 23:01:38 10° NNE
STARLINK-1285 4.1 22:56:46 33° ESE 22:56:46 33° ESE 22:59:00 10° ENE
GEOS 3 Rocket 3.5 22:51:53 15° SE 22:56:15 86° SW 23:01:33 10° NW
STARLINK-1296 4.0 22:58:31 35° ESE 22:58:31 35° ESE 23:00:50 10° ENE
CZ-2D R/B 2.0 22:52:42 10° NNE 22:57:57 82° WNW 22:59:52 40° SSW
STARLINK-1260 4.0 22:59:21 36° ESE 22:59:21 36° ESE 23:01:42 10° ENE
STARLINK-1318 3.9 23:00:11 37° ESE 23:00:11 37° ESE 23:02:35 10° ENE
IRS-1D 4.1 22:54:50 10° NNE 23:00:00 52° E 23:02:40 27° SSE
STARLINK-1240 3.6 22:55:51 10° NW 23:00:01 83° NE 23:04:09 10° SE
STARLINK-1275 3.8 23:01:04 38° ESE 23:01:04 38° ESE 23:03:30 10° ENE
STARLINK-1309 3.8 23:01:58 39° ESE 23:01:58 39° ESE 23:04:27 10° ENE
STARLINK-1282 3.7 23:02:49 40° ESE 23:02:49 40° ESE 23:05:20 10° ENE
Cosmos 2219 4.5 22:58:07 10° NW 23:02:17 22° W 23:02:17 22° W
Cosmos 1400 Rocket 3.0 22:58:53 10° N 23:03:02 73° E 23:04:37 36° SSE
STARLINK-1313 3.4 23:03:49 49° ESE 23:03:49 49° ESE 23:06:29 10° ENE
STARLINK-1291 3.6 23:03:39 46° SE 23:03:39 46° SE 23:06:58 10° ENE
STARLINK-1301 3.5 23:03:49 51° SE 23:03:55 51° SE 23:07:26 10° ENE
STARLINK-1279 3.4 23:04:43 50° ESE 23:04:43 50° ESE 23:07:24 10° ENE
STARLINK-1216 3.5 23:00:49 10° NW 23:04:59 90° NE 23:09:07 10° SE
STARLINK-1298 3.5 23:05:24 44° ESE 23:05:24 44° ESE 23:08:02 10° ENE
STARLINK-1203 3.5 23:00:55 10° NW 23:05:08 90° SW 23:09:20 10° SE
Cosmos 2184 Rocket 4.1 23:01:55 27° S 23:05:24 73° E 23:11:33 10° NNE
STARLINK-1293 3.5 23:06:17 46° ESE 23:06:17 46° ESE 23:08:57 10° ENE
STARLINK-1264 3.5 23:06:03 49° SE 23:06:05 49° SE 23:09:29 10° ENE
STARLINK-42 2.9 23:06:27 78° ESE 23:06:27 78° ESE 23:09:33 10° NE
Cosmos 2297 Rocket 3.3 23:02:13 10° NW 23:06:45 25° WSW 23:07:00 25° WSW
Cosmos 1953 Rocket 3.6 23:06:09 46° SW 23:07:15 63° W 23:11:39 10° N
STARLINK-1255 3.4 23:08:00 49° ESE 23:08:00 49° ESE 23:10:46 10° ENE
STARLINK-1267 3.4 23:08:29 52° SSE 23:08:36 52° SE 23:12:02 10° ENE
STARLINK-1237 3.5 23:05:48 10° NW 23:09:58 83° SW 23:14:06 10° SE
STARLINK-1029 4.4 23:11:20 26° SE 23:11:20 26° SE 23:13:49 10° ENE
STARLINK-1272 3.3 23:10:54 54° SSE 23:11:06 55° SE 23:14:33 10° ENE
Lacrosse 4 Rocket 1.5 23:06:58 10° NW 23:11:08 50° WSW 23:11:40 47° SW
Cosmos 2263 Rocket 3.4 23:06:04 10° NNW 23:11:23 41° ENE 23:16:37 10° SE
Meteor 1-27 4.4 23:07:03 10° N 23:12:38 71° E 23:17:10 16° SSE
Cosmos 1455 3.6 23:10:16 10° NW 23:12:54 23° W 23:12:54 23° W
STARLINK-1207 3.2 23:13:20 56° SSE 23:13:38 59° SE 23:17:06 10° ENE
Meteor 2-10 Rocket 4.4 23:09:16 10° NNW 23:13:44 30° W 23:14:39 28° WSW
STARLINK-80 3.4 23:13:20 54° SSW 23:13:58 66° SE 23:17:45 10° ENE
STARLINK-1202 3.4 23:10:48 10° NW 23:14:57 77° SW 23:19:04 10° SE
Shenzhou-11 Module 4.4 23:16:35 11° ESE 23:16:35 11° ESE 23:16:45 10° ESE
STARLINK-1266 3.2 23:15:49 57° S 23:16:13 62° SE 23:19:41 10° ENE
Cosmos 1937 Rocket 4.0 23:11:26 10° NW 23:16:19 39° WSW 23:17:40 33° SW
STARLINK-62 3.5 23:16:23 43° SE 23:16:23 43° SE 23:19:26 10° ENE
ARIANE 5 R/B 3.8 23:12:01 10° NNE 23:16:34 34° E 23:20:24 13° SSE
Cosmos 2082 4.1 23:11:37 10° NW 23:16:55 43° WSW 23:18:47 32° SSW
Cosmos 540 Rocket 3.8 23:14:56 33° SW 23:16:55 53° WNW 23:21:57 10° N
Cosmos 1898 Rocket 4.5 23:12:27 10° NW 23:16:56 28° W 23:17:36 27° WSW
Cosmos 1842 Rocket 4.2 23:13:07 10° N 23:17:31 55° E 23:20:59 16° SSE
STARLINK-1258 3.0 23:17:48 59° S 23:18:09 64° SE 23:21:31 10° ENE
Cosmos 2150 Rocket 4.2 23:13:04 10° NNW 23:18:15 71° ENE 23:23:22 10° SSE
STARLINK-34 3.4 23:18:25 45° SE 23:18:29 45° SE 23:21:33 10° ENE
STARLINK-1284 3.2 23:18:17 56° S 23:18:46 66° SE 23:22:16 10° ENE
AQUA 3.8 23:14:06 10° N 23:18:52 72° WNW 23:20:51 35° SSW
SL-16 R/B 2.8 23:19:18 29° SSW 23:22:13 49° W 23:28:12 10° NNW
Cosmos 2322 Rocket 3.5 23:18:45 14° SSE 23:22:48 32° ESE 23:27:43 10° NE
Cosmos 2181 Rocket 4.4 23:16:48 10° NNW 23:22:57 48° W 23:26:09 27° SSW
STARLINK-55 3.2 23:22:37 47° W 23:23:15 60° NW 23:26:26 10° NE
STARLINK-1292 3.1 23:23:14 53° SSW 23:23:56 74° SE 23:27:27 10° NE
Cosmos 2278 4.1 23:21:32 28° WSW 23:24:15 51° WNW 23:29:48 10° NNE
STARLINK-41 2.9 23:24:14 56° W 23:24:45 72° NW 23:27:54 10° NE
STARLINK-1246 3.5 23:20:47 10° WNW 23:24:53 63° SW 23:28:59 10° SE
CZ-4C R/B 4.4 23:24:34 30° WSW 23:25:05 31° W 23:28:59 10° NNW
OE (NEXTSAT) 4.2 23:23:21 15° WNW 23:26:08 75° SSW 23:29:37 10° ESE
CZ-4B R/B 3.7 23:21:22 10° N 23:26:31 62° WNW 23:29:08 29° SW
STARLINK-1274 3.1 23:25:45 50° SW 23:26:33 79° SE 23:30:05 10° NE
STARLINK-1289 3.1 23:28:15 48° SW 23:29:09 83° SE 23:32:41 10° NE
STARLINK-1224 3.6 23:25:47 10° WNW 23:29:51 58° SW 23:33:54 10° SE
Cosmos 1892 4.1 23:27:17 15° SSE 23:29:56 34° E 23:33:24 10° NNE
STARLINK-1303 3.1 23:30:47 45° SW 23:31:47 87° SE 23:35:19 10° NE
Cosmos-2242 4.2 23:28:28 10° NW 23:31:57 25° W 23:32:30 24° WSW
Cosmos 1315 Rocket 3.4 23:28:08 10° N 23:31:59 53° ENE 23:35:36 11° SSE
NPP 4.1 23:27:04 10° N 23:32:14 47° WNW 23:34:57 26° SW
STARLINK-1312 3.0 23:31:25 45° SW 23:32:23 88° SE 23:35:53 10° NE
STARLINK-64 4.3 23:32:07 28° SSE 23:33:00 33° SE 23:36:15 10° ENE
Cosmos 1375 Rocket 4.5 23:27:10 10° NW 23:33:47 77° WSW 23:40:16 10° SSE
ATLAS CENTAUR R/B 3.3 23:30:38 10° WNW 23:34:04 31° SW 23:41:19 10° SSE
STARLINK-28 3.7 23:33:02 30° W 23:34:09 44° NNW 23:37:15 10° NE
Cosmos 2221 2.8 23:30:18 10° N 23:34:39 68° E 23:38:27 13° SSE
STARLINK-1225 3.7 23:30:47 10° WNW 23:34:49 52° SW 23:38:51 10° SSE
NOSS 2-1 (C) 3.7 23:34:04 29° S 23:35:16 41° ESE 23:38:34 10° NE
Cosmos 1697 Rocket 4.0 23:32:47 17° WSW 23:36:02 28° NW 23:40:54 10° N
Cosmos 2084 Rocket 3.4 23:33:31 10° NW 23:38:00 84° WSW 23:42:31 10° SSE
Cosmos 2154 Rocket 4.0 23:33:58 19° S 23:38:42 85° E 23:44:59 10° N
NOSS 2-1 (D) 3.5 23:38:26 30° S 23:39:44 48° ESE 23:43:06 10° NE
STARLINK-1230 3.8 23:35:47 10° WNW 23:39:46 47° SW 23:43:45 10° SSE
Cosmos 2227 4.3 23:35:22 10° NNW 23:41:09 83° ENE 23:46:55 10° SSE
STARLINK-1317 3.4 23:40:58 31° WSW 23:42:34 72° NW 23:46:15 10° NE
STARLINK-1283 3.6 23:40:41 29° WSW 23:42:35 69° NW 23:46:30 10° NE
Cosmos 2298 Rocket 4.0 23:37:37 10° NNW 23:42:53 64° WSW 23:47:47 12° S
Cosmos 2227 Rocket 3.9 23:40:21 10° WNW 23:43:16 14° W 23:43:30 14° W
STARLINK-1243 3.9 23:40:49 10° WNW 23:44:45 43° SW 23:48:40 10° SSE
Cosmos 372 Rocket 4.2 23:40:00 10° NNW 23:44:56 49° WSW 23:48:30 18° S
Cosmos 1125 Rocket 3.6 23:41:48 10° NNW 23:47:01 78° ENE 23:52:13 10° SSE
STARLINK-1236 4.0 23:45:49 10° WNW 23:49:41 39° SW 23:53:33 10° SSE
STARLINK-1311 3.5 23:50:23 26° W 23:51:41 45° NNW 23:54:33 10° NE
STARLINK-33 4.1 23:50:57 19° W 23:52:44 36° NNW 23:55:45 10° NE
ERS-2 2.7 23:52:37 10° SSE 23:56:13 59° ENE 23:59:50 10° N
